www.pogodaiklimat.ru
ПОГОДА в Квакертауне
Время
и дата
11:35 01.03
11:55 01.03
12:15 01.03
12:35 01.03
12:55 01.03
13:15 01.03
13:35 01.03
13:55 01.03
14:15 01.03
14:35 01.03
14:55 01.03
15:15 01.03
15:35 01.03
15:55 01.03
16:15 01.03
16:35 01.03
16:55 01.03
17:15 01.03
17:35 01.03
17:55 01.03
18:15 01.03
18:35 01.03
18:55 01.03
19:15 01.03
19:35 01.03
19:55 01.03
20:15 01.03
20:35 01.03
20:55 01.03
21:15 01.03
21:35 01.03
21:55 01.03
22:15 01.03
22:35 01.03
22:55 01.03
23:15 01.03
23:35 01.03
23:55 01.03
00:15 02.03
00:35 02.03
00:55 02.03
01:15 02.03
01:35 02.03
01:55 02.03
02:15 02.03
02:35 02.03
02:55 02.03
03:15 02.03
Ветер
(напр.,м/с)
Видим. Явления Облачность Т
(С)
Тd
(С)
f
(%)
Тe
(С)
Тes
(С)
Комфортность P
(гПа)
Po
(гПа)
Тmin
(С)
Tmax
(С)
R
(мм)
R24
(мм)
S
(см)
штиль 0 16 км ясно +6.0 -8.0 36 +6 +18 опасность
простуды
1016.6
Ю 3 16 км ясно +7.0 -7.0 36 +5 +12 1015.9
нст 3 16 км ясно +7.0 -8.0 33 +5 +13 1015.6
Ю 3 16 км ясно +8.0 -7.0 34 +6 +14 1014.9
Ю 4 16 км ясно +8.0 -8.0 31 +6 +12 1014.9
Ю 3
{6}
16 км ясно +8.0 -8.0 31 +6 +14 1014.9
Ю 4 16 км ясно +8.0 -7.0 34 +6 +12 1014.9
ЮЗ 4 16 км ясно +9.0 -7.0 32 +7 +13 1014.9
ЮЗ 6 16 км ясно +9.0 -7.0 32 +6 +9 1014.6
Ю 4
{7}
16 км ясно +9.0 -8.0 29 +7 +12 1014.3
нст 3
{7}
16 км ясно +9.0 -8.0 29 +7 +13 1014.3
Ю 4
{6}
16 км ясно +9.0 -7.0 32 +7 +10 1014.3
ЮЗ 5 16 км ясно +8.0 -7.0 34 +5 +7 1014.3
Ю 4 16 км ясно +8.0 -7.0 34 +6 +9 1014.3
ЮЗ 3
{7}
16 км ясно +8.0 -7.0 34 +6 +8 1014.6
ЮЗ 4 16 км ясно +8.0 -7.0 34 +6 +7 1014.3
ЮЗ 5 16 км ясно +7.0 -7.0 36 +4 +5 1013.9
ЮЗ 3 16 км ясно +7.0 -6.0 39 +5 +5 1013.9
ЮЗ 2
{6}
16 км ясно +6.0 -6.0 42 +4 +5 1013.9
штиль 0 16 км ясно +6.0 -5.0 45 +6 +6 1013.6
штиль 0 16 км ясно +6.0 -5.0 45 +6 +6 1013.6
Ю 2 16 км ясно +5.0 -5.0 48 +3 +3 1013.6
ЮЗ 2 16 км ясно +5.0 -4.0 52 +3 +3 1013.9
нст 2 16 км ясно +5.0 -5.0 48 +3 +3 1013.9
штиль 0 16 км 8/8 1800 м +5.0 -5.0 48 +5 +5 1013.9
Ю 2 16 км 10/10 1800 м +5.0 -6.0 45 +3 +3 1013.9
штиль 0 16 км 10/10 1500 м +5.0 -6.0 45 +5 +5 1013.6
Ю 2 16 км 10/10 1500 м +5.0 -6.0 45 +3 +3 1013.6
ЮЗ 2 16 км 10/10 1500 м +5.0 -6.0 45 +3 +3 1013.6
штиль 0 16 км 10/10 1410 м +5.0 -5.0 48 +5 +5 1013.6
штиль 0 16 км 10/10 1410 м +5.0 -5.0 48 +5 +5 1013.6
Ю 3 16 км 10/10 1410 м +4.0 -5.0 52 +1 +1 1013.6
нст 3 16 км 10/10 1080 м +4.0 -4.0 56 +1 +1 1013.3
Ю 2 16 км 10/10 1080 м +4.0 -4.0 56 +2 +2 1013.3
Ю 2 16 км 10/10 1080 м +4.0 -3.0 60 +2 +2 1012.9
ЮВ 2 16 км 10/10 1080 м +4.0 -3.0 60 +2 +2 1012.9
ЮВ 2 16 км 10/10 1080 м +4.0 -3.0 60 +2 +2 1012.9
ЮВ 2 16 км 10/10 1110 м +4.0 -3.0 60 +2 +2 1012.6
ЮВ 2 16 км слабая морось 10/10 1080 m
[St]
+4.0 -3.0 60 +2 +2 1012.6
ЮВ 3 16 км слабый дождь 10/10 1080 m
[Ns]
+4.0 -2.0 65 +1 +1 1012.6
штиль 0 16 км слабый дождь 10/10 1020 m
[Ns]
+3.0 -1.0 75 +2 +2 1012.9
ЮВ 2 14 км слабый дождь 8/8 930 m
[Ns]
+3.0 0.0 81 0 0 1012.6
штиль 0 14 км слабый дождь 8/8 870 m
[Ns]
+2.0 +1.0 93 +1 +1 1012.6
штиль 0 13 км слабый дождь 8/8 810 m
[Ns]
+2.0 +1.0 93 +1 +1 1012.3
штиль 0 14 км слабый дождь 5/5 750 m
[Ns]
+2.0 +2.0 100 +1 +1 1012.3
штиль 0 10 км слабый дождь 2/2 660 m
[Ns]
+2.0 +2.0 100 +1 +1 1011.9
штиль 0 11 км слабый дождь 5/5 630 m
[Ns]
+2.0 +2.0 100 +1 +1 1011.6
штиль 0 14 км слабый дождь 5/5 600 m
[Ns]
+2.0 +2.0 100 +1 +1 1011.3
Местоположение метеостанции Quakertown Airport: широта 40.4350 долгота -75.3817 высота над уровнем моря 160 м.
В архиве по умолчанию представлена погода в Квакертауне за последние 1-2 суток. Обновление информации о фактической погоде в базе происходит ежечасно! Архивные данные за месяц целиком и за предыдущие месяцы Вы можете получить, выбрав интересующий диапазон дат из раскрывающегося списка и нажав кнопку "Ввод!".
Внимание! Архив погоды МЕТАР в базе сайта по станциям, не включенным в климатический монитор, хранится не более 60 дней. Нет смысла пытаться выбрать более раннюю дату.
*Определитесь, кто Вы:
Внимание! Время в таблицах - местное (без учета летнего времени). Для получения всемирного времени необходимо вычесть поправку, которая равна -5 ч.
Смотрите также архив погоды в соседних городах и на ближайших метеорологических станциях:
Партнеры нашего сайта:      
Пояснения к столбцам:
  • Ветер - указаны скорость ветра в м/с - средняя за 10 мин, порывы в срок и между сроками (в фигурных скобках) и направление, откуда дует ветер: С - северный,
  • СВ - северо-восточный, В - восточный, ЮВ - юго-восточный, Ю - южный, ЮЗ - юго-западный, З - западный, СЗ - северо-западный.
  • Видимость - горизонтальная дальность видимости в метрах или километрах. При видимости от 1 до 10 км при отсутствии осадков обычно наблюдается дымка, при ухудшении видимости до 1 км и менее - туман. В сухую погоду видимость может ухудшаться дымом, пылью или мглою.
  • Явления - указаны атмосферные явления, наблюдавшиеся в срок или в последний час перед сроком; фигурными скобками обозначены явления, наблюдавшиеся между сроками (за 1-3 часа до срока); квадратными скобками обозначены град или гололедные отложения с указанием их диаметра в мм.
  • Облачность - указаны через наклонную черту общая и нижняя облачность в баллах и высота нижней границы облаков в метрах; квадратными скобками обозначены формы облаков: Ci - перистые, Cs - перисто-слоистые, Cc - перисто-кучевые, Ac - высококучевые, As - высокослоистые, Sc - слоисто-кучевые, Ns - слоисто-дождевые, Cu - кучевые, Cb - кучево-дождевые. Подробнее классификацию облаков см. в Атласе облаков (PDF).
  • T - Температура воздуха - температура, измеренная на высоте 2 м над землей.
  • Td - Температура точки росы - температура, при понижении до которой содержащийся в воздухе водяной пар достигнет насыщения.
  • f - Относительная влажность воздуха - влажноcть воздуха, измеренная на высоте 2 м над землей.
  • Te - Эффективная температура - температура, которую ощущает одетый по сезону человек в тени. Характеристика душности погоды. При расчете учитывается влияние влажности воздуха и скорости ветра на теплоощущения человека.
  • Tes - Эффективная температура на солнце - температура, которую ощущает человек, с поправкой на солнечный нагрев. Характеристика знойности погоды. Зависит от высоты солнца над горизонтом, облачности и скорости ветра. Ночью, в пасмурную погоду, а также при ветре 12 м/с и более поправка равна нулю.
  • P - Атмосферное давление - приведенное к уровню моря атмосферное давление.
  • Po - Атмосферное давление - измеренное на уровне метеостанции атмосферное давление.
  • Tmin - Минимальная температура - минимум температуры воздуха на высоте 2 м над землей.
  • Tmax - Максимальная температура - максимум температуры воздуха на высоте 2 м над землей.
  • R - Количество осадков - Количество выпавших осадков за период времени, мм. При наведении курсора мыши на число - период времени, за который выпало указанное количество осадков.
  • R24 - Количество осадков - Количество выпавших осадков за 24 часа, мм.
  • S - Снежный покров - Высота снежного покрова, см. При наведении курсора мыши на число - состояние снежного покрова и степень покрытия местности в баллах.